Regional Weather Roundup
Issued by NWS Nashville, TN

Current Version |  Previous Version |  Text Only |  Print | Product List |  Glossary Off
Versions: 1 2 3 4 5 6 7 8 9 10 11 12 13 14 15 16 17 18 19 20 21 22 23 24 25 26 27 28
286
ASUS44 KOHX 200010
RWROHX
MIDDLE TENNESSEE HOURLY WEATHER ROUNDUP
NATIONAL WEATHER SERVICE NASHVILLE TN
700 PM CDT SUN MAY 19 2024

NOTE: "FAIR" INDICATES FEW OR NO CLOUDS BELOW 12,000 FEET WITH
NO SIGNIFICANT WEATHER AND/OR OBSTRUCTIONS TO VISIBILITY.

* THESE REPORTS ARE NOT UNDER NWS QUALITY CONTROL AND MAY NOT
  REPORT WEATHER SUCH AS PRECIPITATION AND FOG.


TNZ005>011-023>034-057-059-062>066-078-080-200100
...NORTHERN MIDDLE TENNESSEE...

CITY           SKY/WX    TMP DP  RH WIND       PRES   REMARKS
CLARKSVILLE    FAIR      84  61  45 CALM      29.94S
CROSSVILLE     FAIR      77  56  48 NE7       30.00R
DICKSON        CLEAR     81  63  54 CALM      29.95S
GALLATIN       CLEAR     82  61  47 NE5       29.97R
LEBANON        CLEAR     84  63  48 NE5       29.92R
LIVINGSTON     CLEAR     77  61  57 N3        29.96S
NASHVILLE      FAIR      84  59  42 NE6       29.94S
PORTLAND       CLEAR     81  63  54 CALM      29.94S
ROCKWOOD       CLEAR     73  66  78 CALM      29.98R
SMYRNA         FAIR      84  62  47 NE7       29.95S
SPARTA         FAIR      79  61  53 CALM      29.95R
SPRINGFIELD    CLEAR     82  61  47 CALM      29.94R
WEST NASHVILLE CLEAR     82  63  51 N6        29.92S
$$
TNZ056-058-060-061-075>077-079-093>097-200100
...SOUTHERN MIDDLE TENNESSEE...

CITY           SKY/WX    TMP DP  RH WIND       PRES   REMARKS
COLUMBIA       CLEAR     82  59  44 N5        29.92S
FAYETTEVILLE   CLEAR     81  63  54 N5        29.96R
LAWRENCEBURG   CLEAR     81  61  50 N3        29.94S
LEWISBURG      CLEAR     81  61  50 NE5       29.94R
MCMINNVILLE    CLEAR     79  61  53 NE6       29.95R
MURFREESBORO   CLEAR     84  59  42 NE6       29.93R
PULASKI        CLEAR     82  61  47 CALM      29.93S
SHELBYVILLE    CLEAR     79  61  53 NE5       29.94R
TULLAHOMA      CLEAR     79  61  53 N7        29.94R
WINCHESTER     CLEAR     81  63  54 N6        29.95R
$$


...KEY TO REMARKS...
VSB - VISIBILITY IN MILES
WCI - WIND CHILL INDEX
HX  - HEAT INDEX